Location: Fredericksburg
(30.2750°N, 98.8720°W)
Time: 10:42:38
(UTC-05:00)

PCSat - Visible Passes

Search period start: 22 August 2014 00:00
Search period end: 01 September 2014 00:00
Orbit: 786 x 796 km, 67.1° (Epoch: 21 August)

Date Brightness Start Highest point End Pass type
(mag) Time Alt. Az. Time Alt. Az. Time Alt. Az.
22 Aug 9.8 05:29:57 10° NNW 05:35:22 72° ENE 05:40:45 10° SSE visible
23 Aug 10.4 04:59:32 10° NNW 05:04:48 50° ENE 05:10:01 10° SE visible
24 Aug 11.0 04:29:14 10° N 04:34:11 35° ENE 04:39:05 10° SE visible
24 Aug 10.6 06:13:07 10° NW 06:17:19 23° WSW 06:21:31 10° SSW visible
25 Aug 11.6 03:59:05 10° N 04:03:31 25° ENE 04:07:55 10° ESE visible
25 Aug 10.1 05:42:04 10° NW 05:46:54 34° WSW 05:51:42 10° S visible
26 Aug 12.0 03:29:08 10° NNE 03:32:48 18° NE 03:32:53 18° NE visible
26 Aug 11.0 05:11:14 10° NW 05:13:21 23° NW 05:13:21 23° NW visible
27 Aug 12.5 02:59:37 10° NNE 03:00:23 12° NNE 03:00:23 12° NNE visible
27 Aug 11.9 04:40:33 10° NNW 04:40:58 12° NNW 04:40:58 12° NNW visible
